Погода Новая Ушица

Погода Новая Ушица : погода сейчас, прогноз погоды и архив. Всё, что Вы хотите узнать о погоде Новая Ушица!

Поиск расширенной информации на нашем сайте:

Другие новости

Новости СМИ2

Главная страница сайта

Новости сайта

03.07.2017

Напоминаем, что на нашем специализированном сайте Метеоцентр.Азия вы можете получить высокодетализированные автоматические прогнозы погоды по пунктам России, СНГ и мира в авиационном формате (включающие направление и скорость ветра, видимость, явления погоды, количество и форму облачности, нижнюю и верхнюю границу облачности).


Погода Новая Ушица - сегодня

Время (UTC), дата Ветер
(°,м/с) 
Видим.   Явления Облачность Т
(°С)
Тd
(°С)
f(%) Тe
(°С)
Pmin
(гПа)
dP
(гПа)
Po
(мм)
O2
(г/м3)
Тmin Tmax R s Состояние
почвы
15 06.02.18 180 (Ю) н/о    8/0 средняя, верхняя 
[Ac trans|Ci fib]
-4.6 -12.7 53 -6  1026.2  0.4  742  304           
21 06.02.18 160 (Ю) н/о    10/10 600 м 
[Sc]
-5.6 -8.6 79 -7  1026.9  742  305           
15 07.02.18 140 (ЮВ) 21000 м    10/10 300 м 
[Sc]
+1.5 -0.7 85 -1  1021.6  -1.4  739  295           
21 07.02.18 150 (ЮВ) н/о    10/10 600 м 
[Sc]
+1.9 +0.6 91 -1  1019.5  -1  738  294           
15 10.02.18 320 (СЗ) 27000 м    10/10 600 м 
[Sc]
-1.9 -4.6 82 -3  1016.7  0.4  735  298           
21 10.02.18 270 (З) н/о    10/10 600 м 
[Sc]
-3 -5 86 -3  1016.9  735  299           
09 11.02.18 030 (СВ) 24000 м    10/8 600 м средняя 
[Sc|Ac As]
-1.6 -3.9 84 -1  1014.7  -0.2  734  297           
15 11.02.18 030 (СВ) 40000 м    10/3 600 м средняя 
[Sc|Ac As]
-0.6 -3 84 1011.9  -0.8  732  295           
21 11.02.18 100 (В) н/о    10/10 600 м 
[Sc]
-1.7 -3.7 86 -3  1012.3  0.4  732  296           
09 12.02.18 350 (С) 50000 м    10/10 600 м 
[Sc]
-1.3 -3.9 82 -1  1013.5  0.4  733  296           
15 12.02.18 360 (С) 60000 м    10/5 600 м средняя 
[Sc|Ac As]
-0.2 -2.5 84 1013.5  0.3  733  295           
09 16.02.18 180 (Ю) 0800 м  туман  ?/?  
-0.5 -0.6 99 1026.6  742  299           
15 16.02.18 190 (Ю) 30000 м    9/9 600 м 
[Sc]
+0.5 -2 83 +1  1025.3  -0.7  742  298           
21 16.02.18 260 (З) н/о    9/6 600 м средняя, верхняя 
[Sc|Ac und|Ci fib]
-0.9 -1.9 93 -3  1026.4  742  299           
09 17.02.18 280 (З) 23000 м    6/0 верхняя 
[Ci fib]
+0.9 -4 70 -1  1026.8  743  298           
15 17.02.18 270 (З) 40000 м    4/0 верхняя 
[Ci fib]
+1.3 -6.1 58 1024.5  -1.2  741  297           
21 17.02.18 220 (ЮЗ) н/о    ясно 
-4.2 -6.5 84 -4  1024.5  -0.7  741  303           
09 18.02.18 240 (ЮЗ) 45000 м    9/0 средняя 
[Ac trans]
-0.8 -3.9 79 -2  1023.4  740  299           
15 18.02.18 250 (З) 60000 м    9/5 600 м средняя, верхняя 
[Sc|Ac cuf|Ci fib]
+0.9 -4 70 +2  1023.3  0.5  740  297           
21 18.02.18 350 (С) н/о    10/10 600 м 
[Sc]
-1.4 -3.7 84 -2  1025.6  742  300           
09 19.02.18 350 (С) 50000 м    9/3 600 м средняя 
[Sc|Ac und]
-2.3 -6.6 72 -3  1027.8  0.4  743  302           
15 19.02.18 290 (З) н/о    3/0 верхняя 
[Ci fib]
-1.6 -8 62 -1  1026.7  -0.3  742  301           
21 19.02.18 360 (С) н/о    ясно 
-8 -10.7 81 -8  1027.1  -0.6  742  308           
09 20.02.18 100 (В) 18000 м    8/0 верхняя 
[Ci fib]
-3.7 -8.1 71 -5  1025.9  -0.1  742  303           
15 20.02.18 100 (В) 29000 м    9/0 верхняя 
[Ci fib]
-1.7 -8.1 62 -4  1023.6  -0.8  740  300           
Время (UTC), дата Ветер
(°,м/с) 
Видим.   Явления Облачность Т
(°С)
Тd
(°С)
f(%) Тe
(°С)
Pmin
(гПа)
dP
(гПа)
Po
(мм)
O2
(г/м3)
Тmin Tmax R s Состояние
почвы

Для получения пояснительной информации подведите курсор к названию столбца.

ПОГОДА Новая Ушица - архив

Всё, что Вы хотите узнать о погоде Новая Ушица - удобно и подробно!

Выберите нужную дату (начиная с 1 января 2015* года) и нажмите кнопку "Найти".
Будут отображены архивные сводки погоды по пункту Новая Ушица, начиная с указанной даты.


Отображать данные в формате CSV (для использования в таблицах Excel)


Внимание! Наш архив погоды предназначен исключительно для личного некоммерческого использования в познавательных целях. Если Вам необходимы официальные справки о состоянии погоды (для производственных, юридических, коммерческих и т.п. целей), обращайтесь в органы Росгидромета.

*Примечание: данная дата относится к архиву по метеостанциям СССР (Россия, СНГ, Балтия).
Архив по метеостанциям Зарубежной Европы и Азии (кроме Китая) хранится 10 дней, по другим регионам земного шара (Китай, Африка, Америка, Австралия, Океания) - 1 день.

Новая Ушица - район местоположения метеостанции


Название, широта, долгота, высота метеостанции:
Новая Ушица 48.9°ш. 27.3°д. 290 м над ур. моря [Украина]

Дополнительная информация

В oтличие oт бoльшинства пoгoдных сайтoв мы публикуем пoдрoбную метеoинфoрмацию в детальнoм прoфессиoнальнoм фoрмате.

Характеристики температуры и влажнoсти вoздуха измеряются на высoте 2 м в тени вдали oт зданий и деревьев.
Скoрoсть ветра измеряется на высoте 10 м (на урoвне рoста челoвека скoрoсть ветра ниже в 1.5-2 раза). Если метеoстанция нахoдится в гoрoде или в лесу, тo скoрoсть ветра занижена на 2-4 м/с пo сравнению с oткрытым местoм. Скoрoсть ветра над акватoриями крупных рек и oзёр, а также на вершинах хoлмoв на 2-5 м/с выше, чем в oбычных услoвиях.
Атмoсфернoе давление в разных тoчках местнoсти мoжет значительнo oтличаться oт давления на метеoстанции, в зависимoсти oт услoвий рельефа (при пoдъёме на 10 м давление пoнижается примернo на 1 мм рт.ст.).